Flag for Canada Weather past 2 weeks in Whitehorse, Yukon Territory, Canada

Now
1 °F

Clear.


Feels Like: -15 °F
Forecast: -8 / 18 °F
Wind: 10 mph from Northwest

Location: Withehorse

Current Time: Jan 26, 2015 at 1:40:37 AM

Latest Report: Jan 26, 2015 at 1:00 AM


Visibility: 15 mi

Pressure: 29.85 "Hg

Humidity: 78%

Dew point: -4 °F

Location of WhitehorseLocation

Historic Weather in Whitehorse — Graph

°F

Whitehorse temperature yesterday

Maximum temperature yesterday: 34 °F (at 12:00 PM)
Minimum temperature yesterday: 5 °F (at 11:00 PM)
Average temperature yesterday: 27 °F

Past Weeks' High & Low Weather Summary

 TemperatureHumidityPressure
High41 °F (Jan 13, 5:00 PM)100% (Jan 18, 9:00 AM)30.19 "Hg (Jan 18, 9:00 AM)
Low3 °F (Jan 26, 12:00 AM)37% (Jan 25, 6:00 PM)29.06 "Hg (Jan 15, 8:00 PM)
Average28 °F85%29.62 "Hg
* Reported Midnight between Jan 10 and Jan 11 — Midnight between Jan 25 and Jan 26, Whitehorse, Weather by CustomWeather, © 2014

Note: Actual official high and low records may vary slightly from our data, if they occured in-between our weather recording intervals... More about our weather records

Advertising

Whitehorse weather history for previous 24 hours

 ConditionsComfort  
Time TempWeatherWind HumidityBarometerVisibility
12:00 AM
Jan 26
3 °FClear.8 mph78%29.83 "Hg15 mi
11:00 PM
Jan 25
5 °FClear.9 mph78%29.78 "Hg15 mi
10:00 PM9 °FClear.10 mph72%29.74 "Hg15 mi
9:00 PM12 °FClear.15 mph67%29.67 "Hg15 mi
8:50 PM14 °FPassing clouds.14 mph67%29.66 "Hg15 mi
8:00 PM30 °FPassing clouds.12 mph40%29.59 "Hg15 mi
7:00 PM32 °FPartly cloudy.18 mph37%29.56 "Hg15 mi
6:00 PM32 °FMostly cloudy.8 mph37%29.55 "Hg15 mi
5:00 PM34 °FPassing clouds.9 mph75%29.52 "Hg25 mi
4:00 PM34 °FPartly sunny.9 mph81%29.52 "Hg30 mi
3:00 PM32 °FSnow flurries. Partly sunny.9 mph87%29.49 "Hg30 mi
2:00 PM32 °FBroken clouds.14 mph80%29.48 "Hg30 mi
1:00 PM34 °FBroken clouds.13 mph81%29.46 "Hg30 mi
12:00 PM34 °FBroken clouds.22 mph75%29.44 "Hg20 mi
11:00 AM30 °FBroken clouds.16 mph80%29.42 "Hg40 mi
10:00 AM28 °FBroken clouds.21 mph86%29.42 "Hg40 mi
9:00 AM28 °FPartly cloudy.21 mph93%29.40 "Hg40 mi
8:00 AM32 °FPartly cloudy.18 mph80%29.39 "Hg15 mi
7:00 AM30 °FMostly cloudy.14 mph86%29.36 "Hg15 mi
6:00 AM30 °FMostly cloudy.15 mph86%29.32 "Hg15 mi
5:00 AM30 °FPassing clouds.14 mph86%29.29 "Hg15 mi
4:00 AM28 °FPassing clouds.15 mph93%29.26 "Hg15 mi
3:00 AM28 °FPassing clouds.10 mph93%29.23 "Hg15 mi
2:00 AM27 °FLight snow. Mostly cloudy.2 mph100%29.22 "Hg10 mi
1:00 AM28 °FLight snow. Overcast.No wind93%29.21 "Hg10 mi
Weather by CustomWeather, © 2014

See weather overviewHow to use our weather pages